iso_date,Year,Hour,Min,DOY,POS_DOY,Lat,Lon,BP,Ts,Ta,has_bp,has_ts,has_ta,BuoyID,Buoy_Type,Buoy_Owner,Logistics,Hemisphere
2008-04-08T17:37:06Z,2008,18,37,99.7341,99.7341,88.39271,16.11885,-999.0,-1.81,-999.0,no,yes,no,15,unknown,unknown,unknown,North
2008-04-08T19:36:20Z,2008,20,36,99.8169,99.8169,88.38658,16.07313,-999.0,-1.81,-999.0,no,yes,no,15,unknown,unknown,unknown,North
2008-04-08T21:36:51Z,2008,22,37,99.9006,99.9006,88.38037,16.01039,-999.0,-1.81,-999.0,no,yes,no,15,unknown,unknown,unknown,North
2008-04-08T23:35:48Z,2008,24,36,99.9832,99.9832,88.37451,15.94174,-999.0,-1.81,-999.0,no,yes,no,15,unknown,unknown,unknown,North
2008-04-09T01:36:28Z,2008,2,36,100.067,100.067,88.36936,15.87807,-999.0,-1.81,-999.0,no,yes,no,15,unknown,unknown,unknown,North
2008-04-09T05:35:39Z,2008,6,36,100.2331,100.2331,88.36032,15.80389,-999.0,-1.81,-999.0,no,yes,no,15,unknown,unknown,unknown,North
2008-04-09T09:36:00Z,2008,10,36,100.4,100.4,88.3487,15.64693,-999.0,-1.81,-999.0,no,yes,no,15,unknown,unknown,unknown,North
2008-04-09T11:36:31Z,2008,12,37,100.4837,100.4837,88.3433,15.51992,-999.0,-1.81,-999.0,no,yes,no,15,unknown,unknown,unknown,North
2008-04-09T13:37:03Z,2008,14,37,100.5674,100.5674,88.33886,15.41128,-999.0,-1.81,-999.0,no,yes,no,15,unknown,unknown,unknown,North
2008-04-09T15:35:51Z,2008,16,36,100.6499,100.6499,88.33522,15.34033,-999.0,-1.81,-999.0,no,yes,no,15,unknown,unknown,unknown,North
2008-04-09T17:36:23Z,2008,18,36,100.7336,100.7336,88.33142,15.29885,-999.0,-1.81,-999.0,no,yes,no,15,unknown,unknown,unknown,North
2008-04-09T21:37:00Z,2008,22,37,100.9007,100.9007,88.32483,15.16684,-999.0,-1.81,-999.0,no,yes,no,15,unknown,unknown,unknown,North
2008-04-10T01:35:54Z,2008,2,36,101.0666,101.0666,88.32137,14.98517,-999.0,-1.81,-999.0,no,yes,no,15,unknown,unknown,unknown,North
2008-04-10T03:36:25Z,2008,4,36,101.1503,101.1503,88.32102,14.93741,-999.0,-1.81,-999.0,no,yes,no,15,unknown,unknown,unknown,North
2008-04-10T05:37:23Z,2008,6,37,101.2343,101.2343,88.32071,14.90309,-999.0,-1.81,-999.0,no,yes,no,15,unknown,unknown,unknown,North
2008-04-10T07:36:11Z,2008,8,36,101.3168,101.3168,88.32022,14.85297,-999.0,-1.81,-999.0,no,yes,no,15,unknown,unknown,unknown,North
2008-04-10T09:36:51Z,2008,10,37,101.4006,101.4006,88.31953,14.76328,-999.0,-1.81,-999.0,no,yes,no,15,unknown,unknown,unknown,North
2008-04-10T11:35:57Z,2008,12,36,101.4833,101.4833,88.31927,14.62792,-999.0,-1.81,-999.0,no,yes,no,15,unknown,unknown,unknown,North
2008-04-10T13:36:37Z,2008,14,37,101.5671,101.5671,88.31956,14.50843,-999.0,-1.81,-999.0,no,yes,no,15,unknown,unknown,unknown,North
2008-04-10T15:36:00Z,2008,16,36,101.65,101.65,88.32016,14.43051,-999.0,-1.81,-999.0,no,yes,no,15,unknown,unknown,unknown,North
2008-04-10T17:36:31Z,2008,18,37,101.7337,101.7337,88.32123,14.38458,-999.0,-1.81,-999.0,no,yes,no,15,unknown,unknown,unknown,North
2008-04-10T21:35:25Z,2008,22,35,101.8996,101.8996,88.32222,14.3049,-999.0,-1.81,-999.0,no,yes,no,15,unknown,unknown,unknown,North
2008-04-10T23:37:23Z,2008,24,37,101.9843,101.9843,88.3228,14.25102,-999.0,-1.81,-999.0,no,yes,no,15,unknown,unknown,unknown,North
2008-04-11T01:36:11Z,2008,2,36,102.0668,102.0668,88.32386,14.20076,-999.0,-1.81,-999.0,no,yes,no,15,unknown,unknown,unknown,North
2008-04-11T03:36:51Z,2008,4,37,102.1506,102.1506,88.3253,14.17749,-999.0,-1.81,-999.0,no,yes,no,15,unknown,unknown,unknown,North
2008-04-11T05:36:23Z,2008,6,36,102.2336,102.2336,88.32651,14.1882,-999.0,-1.81,-999.0,no,yes,no,15,unknown,unknown,unknown,North
2008-04-11T07:36:37Z,2008,8,37,102.3171,102.3171,88.32733,14.21285,-999.0,-1.81,-999.0,no,yes,no,15,unknown,unknown,unknown,North
2008-04-11T09:36:00Z,2008,10,36,102.4,102.4,88.32763,14.21987,-999.0,-1.81,-999.0,no,yes,no,15,unknown,unknown,unknown,North
2008-04-11T13:36:37Z,2008,14,37,102.5671,102.5671,88.32852,14.19283,-999.0,-1.81,-999.0,no,yes,no,15,unknown,unknown,unknown,North
2008-04-11T15:36:00Z,2008,16,36,102.65,102.65,88.32964,14.20675,-999.0,-1.81,-999.0,no,yes,no,15,unknown,unknown,unknown,North
2008-04-11T17:36:31Z,2008,18,37,102.7337,102.7337,88.33076,14.24853,-999.0,-1.81,-999.0,no,yes,no,15,unknown,unknown,unknown,North
2008-04-11T19:37:03Z,2008,20,37,102.8174,102.8174,88.33134,14.30277,-999.0,-1.81,-999.0,no,yes,no,15,unknown,unknown,unknown,North
2008-04-11T21:35:51Z,2008,22,36,102.8999,102.8999,88.33147,14.34925,-999.0,-1.81,-999.0,no,yes,no,15,unknown,unknown,unknown,North
2008-04-11T23:37:32Z,2008,24,38,102.9844,102.9844,88.33149,14.38089,-999.0,-1.81,-999.0,no,yes,no,15,unknown,unknown,unknown,North
2008-04-12T01:36:20Z,2008,2,36,103.0669,103.0669,88.3321,14.41355,-999.0,-1.81,-999.0,no,yes,no,15,unknown,unknown,unknown,North
2008-04-12T03:36:08Z,2008,4,36,103.1501,103.1501,88.33304,14.45941,-999.0,-1.81,-999.0,no,yes,no,15,unknown,unknown,unknown,North
2008-04-12T05:36:57Z,2008,6,37,103.234,103.234,88.33379,14.51949,-999.0,-1.81,-999.0,no,yes,no,15,unknown,unknown,unknown,North
2008-04-12T07:35:19Z,2008,8,35,103.3162,103.3162,88.33461,14.58952,-999.0,-1.81,-999.0,no,yes,no,15,unknown,unknown,unknown,North
2008-04-12T09:35:51Z,2008,10,36,103.3999,103.3999,88.33553,14.66501,-999.0,-1.81,-999.0,no,yes,no,15,unknown,unknown,unknown,North
2008-04-12T11:36:31Z,2008,12,37,103.4837,103.4837,88.33677,14.73044,-999.0,-1.81,-999.0,no,yes,no,15,unknown,unknown,unknown,North
2008-04-12T13:35:19Z,2008,14,35,103.5662,103.5662,88.33815,14.79115,-999.0,-1.81,-999.0,no,yes,no,15,unknown,unknown,unknown,North
2008-04-12T15:36:51Z,2008,16,37,103.6506,103.6506,88.33977,14.87389,-999.0,-1.81,-999.0,no,yes,no,15,unknown,unknown,unknown,North
2008-04-12T17:36:05Z,2008,18,36,103.7334,103.7334,88.34111,14.96643,-999.0,-1.81,-999.0,no,yes,no,15,unknown,unknown,unknown,North
2008-04-12T19:36:28Z,2008,20,37,103.817,103.817,88.34189,15.05215,-999.0,-1.81,-999.0,no,yes,no,15,unknown,unknown,unknown,North
2008-04-12T21:37:00Z,2008,22,37,103.9007,103.9007,88.34255,15.11997,-999.0,-1.81,-999.0,no,yes,no,15,unknown,unknown,unknown,North
2008-04-12T23:37:06Z,2008,24,37,103.9841,103.9841,88.34297,15.16335,-999.0,-1.81,-999.0,no,yes,no,15,unknown,unknown,unknown,North
2008-04-13T01:35:54Z,2008,2,36,104.0666,104.0666,88.34351,15.19056,-999.0,-1.81,-999.0,no,yes,no,15,unknown,unknown,unknown,North
2008-04-13T03:36:00Z,2008,4,36,104.15,104.15,88.34468,15.22141,-999.0,-1.81,-999.0,no,yes,no,15,unknown,unknown,unknown,North
2008-04-13T05:36:48Z,2008,6,37,104.2339,104.2339,88.34631,15.25768,-999.0,-1.81,-999.0,no,yes,no,15,unknown,unknown,unknown,North
2008-04-13T07:35:19Z,2008,8,35,104.3162,104.3162,88.34806,15.29525,-999.0,-1.81,-999.0,no,yes,no,15,unknown,unknown,unknown,North
2008-04-13T09:36:34Z,2008,10,37,104.4004,104.4004,88.34998,15.32016,-999.0,-1.81,-999.0,no,yes,no,15,unknown,unknown,unknown,North
2008-04-13T12:09:04Z,2008,12,9,104.5063,104.5063,88.35283,15.31971,-999.0,-1.81,-999.0,no,yes,no,15,unknown,unknown,unknown,North
2008-04-13T13:35:54Z,2008,14,36,104.5666,104.5666,88.35461,15.30364,-999.0,-1.81,-999.0,no,yes,no,15,unknown,unknown,unknown,North
2008-04-13T15:35:51Z,2008,16,36,104.6499,104.6499,88.35753,15.27787,-999.0,-1.81,-999.0,no,yes,no,15,unknown,unknown,unknown,North
2008-04-13T17:37:06Z,2008,18,37,104.7341,104.7341,88.36055,15.25305,-999.0,-1.81,-999.0,no,yes,no,15,unknown,unknown,unknown,North
2008-04-13T21:37:35Z,2008,22,38,104.9011,104.9011,88.36746,15.18632,-999.0,-1.81,-999.0,no,yes,no,15,unknown,unknown,unknown,North
2008-04-14T01:36:20Z,2008,2,36,105.0669,105.0669,88.37577,14.98971,-999.0,-1.81,-999.0,no,yes,no,15,unknown,unknown,unknown,North
2008-04-14T05:36:57Z,2008,6,37,105.234,105.234,88.38702,14.72115,-999.0,-1.81,-999.0,no,yes,no,15,unknown,unknown,unknown,North
2008-04-14T09:36:34Z,2008,10,37,105.4004,105.4004,88.39819,14.53788,-999.0,-1.81,-999.0,no,yes,no,15,unknown,unknown,unknown,North
2008-04-14T13:35:54Z,2008,14,36,105.5666,105.5666,88.40773,14.36518,-999.0,-1.81,-999.0,no,yes,no,15,unknown,unknown,unknown,North
2008-04-14T17:36:31Z,2008,18,37,105.7337,105.7337,88.41657,14.17712,-999.0,-1.81,-999.0,no,yes,no,15,unknown,unknown,unknown,North
2008-04-14T21:36:43Z,2008,22,37,105.9005,105.9005,88.4241,14.02161,-999.0,-1.81,-999.0,no,yes,no,15,unknown,unknown,unknown,North
2008-04-15T01:35:19Z,2008,2,35,106.0662,106.0662,88.43208,13.84148,-999.0,-1.81,-999.0,no,yes,no,15,unknown,unknown,unknown,North
2008-04-15T05:35:13Z,2008,6,35,106.2328,106.2328,88.4415,13.66113,-999.0,-1.81,-999.0,no,yes,no,15,unknown,unknown,unknown,North
2008-04-15T07:35:45Z,2008,8,36,106.3165,106.3165,88.44577,13.55496,-999.0,-1.81,-999.0,no,yes,no,15,unknown,unknown,unknown,North
2008-04-15T13:35:19Z,2008,14,35,106.5662,106.5662,88.45761,13.13219,-999.0,-1.8,-999.0,no,yes,no,15,unknown,unknown,unknown,North
2008-04-15T17:36:40Z,2008,18,37,106.7338,106.7338,88.46866,12.85444,-999.0,-1.8,-999.0,no,yes,no,15,unknown,unknown,unknown,North
2008-04-15T19:35:28Z,2008,20,36,106.8163,106.8163,88.47461,12.69183,-999.0,-1.81,-999.0,no,yes,no,15,unknown,unknown,unknown,North
2008-04-15T21:35:51Z,2008,22,36,106.8999,106.8999,88.48031,12.49694,-999.0,-1.81,-999.0,no,yes,no,15,unknown,unknown,unknown,North
2008-04-16T01:36:02Z,2008,2,36,107.0667,107.0667,88.49209,11.97317,-999.0,-1.81,-999.0,no,yes,no,15,unknown,unknown,unknown,North
2008-04-16T05:36:57Z,2008,6,37,107.234,107.234,88.50221,11.33503,-999.0,-1.8,-999.0,no,yes,no,15,unknown,unknown,unknown,North
2008-04-16T07:36:02Z,2008,8,36,107.3167,107.3167,88.5056,10.93553,-999.0,-1.8,-999.0,no,yes,no,15,unknown,unknown,unknown,North
2008-04-16T09:36:51Z,2008,10,37,107.4006,107.4006,88.50734,10.51113,-999.0,-1.8,-999.0,no,yes,no,15,unknown,unknown,unknown,North
2008-04-16T13:35:19Z,2008,14,35,107.5662,107.5662,88.50811,9.69403,-999.0,-1.8,-999.0,no,yes,no,15,unknown,unknown,unknown,North
2008-04-16T15:36:25Z,2008,16,36,107.6503,107.6503,88.50664,9.33199,-999.0,-1.8,-999.0,no,yes,no,15,unknown,unknown,unknown,North
2008-04-16T17:36:57Z,2008,18,37,107.734,107.734,88.50327,9.05284,-999.0,-1.8,-999.0,no,yes,no,15,unknown,unknown,unknown,North
2008-04-16T19:35:28Z,2008,20,35,107.8163,107.8163,88.49806,8.86406,-999.0,-1.8,-999.0,no,yes,no,15,unknown,unknown,unknown,North
2008-04-16T21:36:00Z,2008,22,36,107.9,107.9,88.4913,8.72495,-999.0,-1.8,-999.0,no,yes,no,15,unknown,unknown,unknown,North
2008-04-16T23:36:31Z,2008,24,37,107.9837,107.9837,88.48483,8.58073,-999.0,-1.8,-999.0,no,yes,no,15,unknown,unknown,unknown,North
2008-04-17T01:35:19Z,2008,2,35,108.0662,108.0662,88.47952,8.45692,-999.0,-1.8,-999.0,no,yes,no,15,unknown,unknown,unknown,North
2008-04-17T03:37:00Z,2008,4,37,108.1507,108.1507,88.47439,8.35261,-999.0,-1.8,-999.0,no,yes,no,15,unknown,unknown,unknown,North
2008-04-17T05:36:23Z,2008,6,36,108.2336,108.2336,88.46938,8.27264,-999.0,-1.8,-999.0,no,yes,no,15,unknown,unknown,unknown,North
2008-04-17T09:36:43Z,2008,10,37,108.4005,108.4005,88.45897,8.14695,-999.0,-1.8,-999.0,no,yes,no,15,unknown,unknown,unknown,North
2008-04-17T13:36:54Z,2008,14,37,108.5673,108.5673,88.45091,8.0465,-999.0,-1.8,-999.0,no,yes,no,15,unknown,unknown,unknown,North
2008-04-17T15:36:00Z,2008,16,36,108.65,108.65,88.44812,8.03416,-999.0,-1.8,-999.0,no,yes,no,15,unknown,unknown,unknown,North
2008-04-17T17:36:48Z,2008,18,37,108.7339,108.7339,88.44534,8.02345,-999.0,-1.8,-999.0,no,yes,no,15,unknown,unknown,unknown,North
2008-04-17T21:37:00Z,2008,22,37,108.9007,108.9007,88.4381,7.96791,-999.0,-1.8,-999.0,no,yes,no,15,unknown,unknown,unknown,North
2008-04-17T23:36:14Z,2008,24,36,108.9835,108.9835,88.43458,7.93398,-999.0,-1.8,-999.0,no,yes,no,15,unknown,unknown,unknown,North
2008-04-18T01:36:37Z,2008,2,37,109.0671,109.0671,88.43157,7.91447,-999.0,-1.8,-999.0,no,yes,no,15,unknown,unknown,unknown,North
2008-04-18T03:35:51Z,2008,4,36,109.1499,109.1499,88.42923,7.90137,-999.0,-1.8,-999.0,no,yes,no,15,unknown,unknown,unknown,North
2008-04-18T05:36:31Z,2008,6,36,109.2337,109.2337,88.42697,7.88135,-999.0,-1.8,-999.0,no,yes,no,15,unknown,unknown,unknown,North
2008-04-18T07:35:19Z,2008,8,35,109.3162,109.3162,88.42448,7.84904,-999.0,-1.8,-999.0,no,yes,no,15,unknown,unknown,unknown,North
2008-04-18T09:37:00Z,2008,10,37,109.4007,109.4007,88.42175,7.79467,-999.0,-1.8,-999.0,no,yes,no,15,unknown,unknown,unknown,North
2008-04-18T11:36:14Z,2008,12,36,109.4835,109.4835,88.41908,7.7402,-999.0,-1.8,-999.0,no,yes,no,15,unknown,unknown,unknown,North
2008-04-18T13:36:37Z,2008,14,37,109.5671,109.5671,88.41739,7.68053,-999.0,-1.8,-999.0,no,yes,no,15,unknown,unknown,unknown,North
2008-04-18T17:36:31Z,2008,18,37,109.7337,109.7337,88.41574,7.59257,-999.0,-1.8,-999.0,no,yes,no,15,unknown,unknown,unknown,North
2008-04-18T21:37:00Z,2008,22,37,109.9007,109.9007,88.41285,7.52318,-999.0,-1.8,-999.0,no,yes,no,15,unknown,unknown,unknown,North
2008-04-19T01:36:28Z,2008,2,37,110.067,110.067,88.4102,7.43914,-999.0,-1.8,-999.0,no,yes,no,15,unknown,unknown,unknown,North
2008-04-19T05:36:40Z,2008,6,37,110.2338,110.2338,88.40733,7.28751,-999.0,-1.8,-999.0,no,yes,no,15,unknown,unknown,unknown,North
2008-04-19T07:35:19Z,2008,8,35,110.3162,110.3162,88.40538,7.18065,-999.0,-1.8,-999.0,no,yes,no,15,unknown,unknown,unknown,North
2008-04-19T09:35:42Z,2008,10,36,110.3998,110.3998,88.40344,7.02889,-999.0,-1.8,-999.0,no,yes,no,15,unknown,unknown,unknown,North
2008-04-19T13:36:37Z,2008,14,37,110.5671,110.5671,88.40051,6.7621,-999.0,-1.8,-999.0,no,yes,no,15,unknown,unknown,unknown,North
2008-04-19T17:36:23Z,2008,18,36,110.7336,110.7336,88.39815,6.44783,-999.0,-1.8,-999.0,no,yes,no,15,unknown,unknown,unknown,North
2008-04-19T21:35:16Z,2008,22,35,110.8995,110.8995,88.39537,6.1041,-999.0,-1.8,-999.0,no,yes,no,15,unknown,unknown,unknown,North
2008-04-20T01:36:28Z,2008,2,36,111.067,111.067,88.39202,5.76845,-999.0,-1.8,-999.0,no,yes,no,15,unknown,unknown,unknown,North
2008-04-20T05:36:05Z,2008,6,36,111.2334,111.2334,88.38986,5.43628,-999.0,-1.8,-999.0,no,yes,no,15,unknown,unknown,unknown,North
2008-04-20T09:36:43Z,2008,10,37,111.4005,111.4005,88.38577,4.98036,-999.0,-1.8,-999.0,no,yes,no,15,unknown,unknown,unknown,North
2008-04-20T11:36:48Z,2008,12,37,111.4839,111.4839,88.38292,4.75713,-999.0,-1.8,-999.0,no,yes,no,15,unknown,unknown,unknown,North
2008-04-20T13:35:54Z,2008,14,36,111.5666,111.5666,88.37946,4.55796,-999.0,-1.8,-999.0,no,yes,no,15,unknown,unknown,unknown,North
2008-04-20T15:36:08Z,2008,16,36,111.6501,111.6501,88.37483,4.3556,-999.0,-1.8,-999.0,no,yes,no,15,unknown,unknown,unknown,North
2008-04-20T17:36:48Z,2008,18,37,111.7339,111.7339,88.36824,4.15155,-999.0,-1.8,-999.0,no,yes,no,15,unknown,unknown,unknown,North
2008-04-20T19:37:29Z,2008,20,37,111.8177,111.8177,88.35959,3.90808,-999.0,-1.8,-999.0,no,yes,no,15,unknown,unknown,unknown,North
2008-04-20T21:36:25Z,2008,22,36,111.9003,111.9003,88.34942,3.6355,-999.0,-1.79,-999.0,no,yes,no,15,unknown,unknown,unknown,North
2008-04-20T23:36:48Z,2008,24,37,111.9839,111.9839,88.33808,3.34983,-999.0,-1.79,-999.0,no,yes,no,15,unknown,unknown,unknown,North
2008-04-21T01:35:19Z,2008,2,35,112.0662,112.0662,88.3274,3.04076,-999.0,-1.79,-999.0,no,yes,no,15,unknown,unknown,unknown,North
2008-04-21T03:35:08Z,2008,4,35,112.1494,112.1494,88.31873,2.76761,-999.0,-1.79,-999.0,no,yes,no,15,unknown,unknown,unknown,North
2008-04-21T05:35:48Z,2008,6,36,112.2332,112.2332,88.31318,2.51928,-999.0,-1.79,-999.0,no,yes,no,15,unknown,unknown,unknown,North
2008-04-21T07:36:20Z,2008,8,36,112.3169,112.3169,88.30813,2.27706,-999.0,-1.8,-999.0,no,yes,no,15,unknown,unknown,unknown,North
2008-04-21T09:36:17Z,2008,10,36,112.4002,112.4002,88.30221,2.04319,-999.0,-1.8,-999.0,no,yes,no,15,unknown,unknown,unknown,North
2008-04-21T11:36:57Z,2008,12,37,112.484,112.484,88.29562,1.78744,-999.0,-1.8,-999.0,no,yes,no,15,unknown,unknown,unknown,North
2008-04-21T13:36:02Z,2008,14,36,112.5667,112.5667,88.28913,1.52222,-999.0,-1.81,-999.0,no,yes,no,15,unknown,unknown,unknown,North
2008-04-21T15:36:34Z,2008,16,37,112.6504,112.6504,88.28273,1.24697,-999.0,-1.81,-999.0,no,yes,no,15,unknown,unknown,unknown,North
2008-04-21T17:35:13Z,2008,18,35,112.7328,112.7328,88.27685,0.98555,-999.0,-1.81,-999.0,no,yes,no,15,unknown,unknown,unknown,North
2008-04-21T19:36:54Z,2008,20,37,112.8173,112.8173,88.27108,0.70142,-999.0,-1.81,-999.0,no,yes,no,15,unknown,unknown,unknown,North
2008-04-21T21:37:00Z,2008,22,37,112.9007,112.9007,88.26557,0.42341,-999.0,-1.81,-999.0,no,yes,no,15,unknown,unknown,unknown,North
2008-04-21T23:35:57Z,2008,24,36,112.9833,112.9833,88.26035,0.1534,-999.0,-1.81,-999.0,no,yes,no,15,unknown,unknown,unknown,North
2008-04-22T01:36:37Z,2008,2,37,113.0671,113.0671,88.25464,-0.11217,-999.0,-1.81,-999.0,no,yes,no,15,unknown,unknown,unknown,North
2008-04-22T03:36:25Z,2008,4,36,113.1503,113.1503,88.24824,-0.35759,-999.0,-1.81,-999.0,no,yes,no,15,unknown,unknown,unknown,North
2008-04-22T05:35:48Z,2008,6,36,113.2332,113.2332,88.24114,-0.59949,-999.0,-1.81,-999.0,no,yes,no,15,unknown,unknown,unknown,North
2008-04-22T07:36:37Z,2008,8,37,113.3171,113.3171,88.2331,-0.84819,-999.0,-1.81,-999.0,no,yes,no,15,unknown,unknown,unknown,North
2008-04-22T09:35:16Z,2008,10,35,113.3995,113.3995,88.22441,-1.10304,-999.0,-1.81,-999.0,no,yes,no,15,unknown,unknown,unknown,North
2008-04-22T11:36:48Z,2008,12,37,113.4839,113.4839,88.2156,-1.36879,-999.0,-1.82,-999.0,no,yes,no,15,unknown,unknown,unknown,North
2008-04-22T13:36:02Z,2008,14,36,113.5667,113.5667,88.20755,-1.62471,-999.0,-1.82,-999.0,no,yes,no,15,unknown,unknown,unknown,North
2008-04-22T15:36:51Z,2008,16,37,113.6506,113.6506,88.19941,-1.85941,-999.0,-1.82,-999.0,no,yes,no,15,unknown,unknown,unknown,North
2008-04-22T17:36:23Z,2008,18,36,113.7336,113.7336,88.19046,-2.06649,-999.0,-1.82,-999.0,no,yes,no,15,unknown,unknown,unknown,North
2008-04-22T19:36:20Z,2008,20,36,113.8169,113.8169,88.18047,-2.27193,-999.0,-1.81,-999.0,no,yes,no,15,unknown,unknown,unknown,North
2008-04-22T21:36:43Z,2008,22,37,113.9005,113.9005,88.17,-2.4777,-999.0,-1.81,-999.0,no,yes,no,15,unknown,unknown,unknown,North
2008-04-22T23:36:48Z,2008,24,37,113.9839,113.9839,88.15966,-2.65913,-999.0,-1.81,-999.0,no,yes,no,15,unknown,unknown,unknown,North
2008-04-23T01:35:54Z,2008,2,36,114.0666,114.0666,88.14988,-2.80868,-999.0,-1.81,-999.0,no,yes,no,15,unknown,unknown,unknown,North
2008-04-23T03:36:51Z,2008,4,37,114.1506,114.1506,88.14058,-2.94327,-999.0,-1.81,-999.0,no,yes,no,15,unknown,unknown,unknown,North
2008-04-23T05:36:23Z,2008,6,36,114.2336,114.2336,88.13142,-3.05192,-999.0,-1.81,-999.0,no,yes,no,15,unknown,unknown,unknown,North
2008-04-23T07:36:54Z,2008,8,37,114.3173,114.3173,88.12102,-3.18939,-999.0,-1.81,-999.0,no,yes,no,15,unknown,unknown,unknown,North
2008-04-23T09:36:00Z,2008,10,36,114.4,114.4,88.11083,-3.35094,-999.0,-1.81,-999.0,no,yes,no,15,unknown,unknown,unknown,North
2008-04-23T11:36:14Z,2008,12,36,114.4835,114.4835,88.10261,-3.50848,-999.0,-1.81,-999.0,no,yes,no,15,unknown,unknown,unknown,North
2008-04-23T13:36:54Z,2008,14,37,114.5673,114.5673,88.09579,-3.66007,-999.0,-1.81,-999.0,no,yes,no,15,unknown,unknown,unknown,North
2008-04-23T15:35:51Z,2008,16,36,114.6499,114.6499,88.08955,-3.78351,-999.0,-1.81,-999.0,no,yes,no,15,unknown,unknown,unknown,North
2008-04-23T17:36:31Z,2008,18,37,114.7337,114.7337,88.08273,-3.8912,-999.0,-1.81,-999.0,no,yes,no,15,unknown,unknown,unknown,North
2008-04-23T19:36:37Z,2008,20,37,114.8171,114.8171,88.07557,-4.00916,-999.0,-1.81,-999.0,no,yes,no,15,unknown,unknown,unknown,North
2008-04-23T21:37:00Z,2008,22,37,114.9007,114.9007,88.06806,-4.13817,-999.0,-1.81,-999.0,no,yes,no,15,unknown,unknown,unknown,North
2008-04-23T23:37:06Z,2008,24,37,114.9841,114.9841,88.06054,-4.26832,-999.0,-1.81,-999.0,no,yes,no,15,unknown,unknown,unknown,North
2008-04-24T01:36:11Z,2008,2,36,115.0668,115.0668,88.05322,-4.38279,-999.0,-1.81,-999.0,no,yes,no,15,unknown,unknown,unknown,North
2008-04-24T03:35:25Z,2008,4,35,115.1496,115.1496,88.04633,-4.47773,-999.0,-1.81,-999.0,no,yes,no,15,unknown,unknown,unknown,North
2008-04-24T05:35:13Z,2008,6,35,115.2328,115.2328,88.03987,-4.58092,-999.0,-1.82,-999.0,no,yes,no,15,unknown,unknown,unknown,North
2008-04-24T07:35:19Z,2008,8,35,115.3162,115.3162,88.03304,-4.69103,-999.0,-1.82,-999.0,no,yes,no,15,unknown,unknown,unknown,North
2008-04-24T09:35:16Z,2008,10,35,115.3995,115.3995,88.02549,-4.8173,-999.0,-1.82,-999.0,no,yes,no,15,unknown,unknown,unknown,North
2008-04-24T11:35:39Z,2008,12,36,115.4831,115.4831,88.0173,-4.93209,-999.0,-1.81,-999.0,no,yes,no,15,unknown,unknown,unknown,North
2008-04-24T13:36:02Z,2008,14,36,115.5667,115.5667,88.00937,-5.01532,-999.0,-1.81,-999.0,no,yes,no,15,unknown,unknown,unknown,North
2008-04-24T15:35:16Z,2008,16,35,115.6495,115.6495,88.00218,-5.09235,-999.0,-1.81,-999.0,no,yes,no,15,unknown,unknown,unknown,North
2008-04-24T17:36:23Z,2008,18,36,115.7336,115.7336,87.9955,-5.14429,-999.0,-1.81,-999.0,no,yes,no,15,unknown,unknown,unknown,North
2008-04-24T19:36:37Z,2008,20,37,115.8171,115.8171,87.98889,-5.1861,-999.0,-1.8,-999.0,no,yes,no,15,unknown,unknown,unknown,North
2008-04-24T21:36:43Z,2008,22,37,115.9005,115.9005,87.98219,-5.23306,-999.0,-1.8,-999.0,no,yes,no,15,unknown,unknown,unknown,North
2008-04-24T23:37:23Z,2008,24,37,115.9843,115.9843,87.97572,-5.26181,-999.0,-1.8,-999.0,no,yes,no,15,unknown,unknown,unknown,North
2008-04-25T01:36:28Z,2008,2,36,116.067,116.067,87.96985,-5.28702,-999.0,-1.8,-999.0,no,yes,no,15,unknown,unknown,unknown,North
2008-04-25T03:37:26Z,2008,4,37,116.151,116.151,87.96394,-5.30676,-999.0,-1.8,-999.0,no,yes,no,15,unknown,unknown,unknown,North
2008-04-25T05:36:23Z,2008,6,36,116.2336,116.2336,87.95786,-5.32038,-999.0,-1.81,-999.0,no,yes,no,15,unknown,unknown,unknown,North
2008-04-25T07:37:29Z,2008,8,37,116.3177,116.3177,87.95129,-5.33637,-999.0,-1.81,-999.0,no,yes,no,15,unknown,unknown,unknown,North
2008-04-25T09:36:25Z,2008,10,36,116.4003,116.4003,87.94479,-5.35176,-999.0,-1.81,-999.0,no,yes,no,15,unknown,unknown,unknown,North
2008-04-25T11:35:13Z,2008,12,35,116.4828,116.4828,87.93847,-5.36764,-999.0,-1.81,-999.0,no,yes,no,15,unknown,unknown,unknown,North
2008-04-25T13:35:19Z,2008,14,35,116.5662,116.5662,87.93264,-5.38306,-999.0,-1.81,-999.0,no,yes,no,15,unknown,unknown,unknown,North
2008-04-25T15:37:00Z,2008,16,37,116.6507,116.6507,87.92752,-5.39256,-999.0,-1.81,-999.0,no,yes,no,15,unknown,unknown,unknown,North
2008-04-25T17:36:05Z,2008,18,36,116.7334,116.7334,87.92293,-5.38563,-999.0,-1.8,-999.0,no,yes,no,15,unknown,unknown,unknown,North
2008-04-25T19:36:20Z,2008,20,36,116.8169,116.8169,87.91864,-5.36998,-999.0,-1.8,-999.0,no,yes,no,15,unknown,unknown,unknown,North
2008-04-25T21:36:34Z,2008,22,37,116.9004,116.9004,87.91433,-5.36119,-999.0,-1.8,-999.0,no,yes,no,15,unknown,unknown,unknown,North
2008-04-26T01:35:54Z,2008,2,36,117.0666,117.0666,87.90642,-5.35207,-999.0,-1.8,-999.0,no,yes,no,15,unknown,unknown,unknown,North
2008-04-26T05:36:57Z,2008,6,37,117.234,117.234,87.90163,-5.32681,-999.0,-1.8,-999.0,no,yes,no,15,unknown,unknown,unknown,North
2008-04-26T09:36:00Z,2008,10,36,117.4,117.4,87.9003,-5.27219,-999.0,-1.8,-999.0,no,yes,no,15,unknown,unknown,unknown,North
2008-04-26T13:37:03Z,2008,14,37,117.5674,117.5674,87.90005,-5.23328,-999.0,-1.8,-999.0,no,yes,no,15,unknown,unknown,unknown,North
2008-04-26T17:35:13Z,2008,18,35,117.7328,117.7328,87.9015,-5.23941,-999.0,-1.8,-999.0,no,yes,no,15,unknown,unknown,unknown,North
2008-04-26T19:36:54Z,2008,20,37,117.8173,117.8173,87.90286,-5.24457,-999.0,-1.8,-999.0,no,yes,no,15,unknown,unknown,unknown,North
2008-04-26T21:36:00Z,2008,22,36,117.9,117.9,87.90464,-5.26,-999.0,-1.8,-999.0,no,yes,no,15,unknown,unknown,unknown,North
2008-04-27T01:35:11Z,2008,2,35,118.0661,118.0661,87.90617,-5.32321,-999.0,-1.8,-999.0,no,yes,no,15,unknown,unknown,unknown,North
2008-04-27T05:35:48Z,2008,6,36,118.2332,118.2332,87.91092,-5.45114,-999.0,-1.8,-999.0,no,yes,no,15,unknown,unknown,unknown,North
2008-04-27T09:36:17Z,2008,10,36,118.4002,118.4002,87.91275,-5.61418,-999.0,-1.8,-999.0,no,yes,no,15,unknown,unknown,unknown,North
2008-04-27T13:36:46Z,2008,14,37,118.5672,118.5672,87.91993,-5.93781,-999.0,-1.8,-999.0,no,yes,no,15,unknown,unknown,unknown,North